#timestamp,LO_Frequency,Hit,StdDev 
1556517615.0,286046998.8,P
1556517615.9,286046998.8,P
1556517635.8,286047001.0,Y
1556517655.6,286046999.9,P
1556517675.4,286047001.5,N
1556517695.3,286047002.0,N
1556517715.1,286047003.8,N
1556517735.8,286047002.9,N
1556517755.7,286047001.8,N
1556517775.5,286047002.7,N
1556517795.4,286047000.8,N
1556517815.2,286047002.3,N
1556517835.0,286047004.2,N
1556517835.9,286047004.2,N
1556517855.8,286047003.6,N
1556517875.6,286047006.0,Y
1556517895.5,286047001.7,P
1556517915.3,286047003.9,P
1556517935.1,286047003.2,P
1556517955.9,286047002.0,N
1556517975.7,286047002.0,N
1556517995.5,286047000.0,N
1556518015.4,286047002.1,N
1556518035.2,286047003.2,N
1556518055.1,286047001.5,N
1556518056.0,286047001.5,N
1556518075.8,286047000.6,N
1556518095.6,286047000.8,N
1556518115.5,286046999.8,N
1556518135.3,286047002.5,N
1556518155.1,286047001.8,N
1556518175.9,286047002.0,N
1556518195.7,286047001.1,N
1556518215.6,286046999.0,N
1556518235.4,286047001.1,N
1556518255.2,286047002.5,N
1556518275.1,286047002.6,N
1556518276.0,286047002.6,N
1556518295.8,286047002.5,N
1556518315.6,286047001.6,N
1556518335.5,286047001.6,N
1556518385.3,286047000.3,E
1556518395.3,286047002.3,N
1556518415.1,286047000.1,P
1556518435.8,286047003.5,P
1556518455.7,286047003.6,N
1556518475.5,286047004.1,N
1556518495.4,286047001.6,N
1556518515.2,286047001.5,N
1556518535.0,286047003.2,N
1556518535.9,286047003.2,N
1556518555.8,286047001.4,N
1556518575.6,286047001.5,N
1556518595.4,286047003.9,Y
1556518615.3,286046999.3,P
1556518635.1,286046996.9,N
1556518655.9,286046997.1,N
1556518675.7,286046999.2,N
1556518695.5,286046998.3,N
1556518715.4,286046996.5,N
1556518735.2,286046996.5,N
1556518755.0,286046999.5,N
1556518755.9,286046999.5,N
1556518775.8,286046998.9,N
1556518795.6,286046998.1,N
1556518815.5,286046998.6,N
1556518835.3,286046998.3,N
1556518855.1,286046998.7,N
1556518875.9,286046999.3,N
1556518895.7,286046996.7,N
1556518915.5,286046999.6,N
1556518935.4,286046997.0,N
1556518955.2,286047000.8,N
1556518975.1,286047000.8,N
1556518976.0,286047000.8,N
1556518995.8,286047000.2,N
1556519015.6,286047000.5,N
1556519035.5,286046999.8,N
1556519055.3,286047000.3,N
1556519075.1,286046999.4,N
1556519095.9,286046996.7,N
1556519115.7,286046994.9,Y
1556519135.1,286046996.5,P
1556519136.0,286046996.5,N
1556519155.8,286046999.4,N
1556519175.6,286046999.2,N
1556519195.5,286046996.6,N
1556519215.3,286046998.9,N
1556519235.1,286046998.8,N
1556519255.9,286046999.4,N
1556519275.7,286046997.4,N
1556519295.6,286046995.4,Y
1556519315.4,286046999.4,P
1556519335.2,286046999.2,N
1556519355.1,286046998.9,N
1556519356.0,286046998.9,N
1556519375.8,286046999.1,N
1556519395.7,286046998.3,Y
1556519415.5,286047000.7,P
1556519435.3,286046998.6,N
1556519455.2,286047001.2,N
1556519475.9,286047002.8,N
1556519495.7,286047000.4,N
1556519515.6,286047000.0,N
1556519535.4,286047000.1,N
1556519555.3,286047002.8,N
1556519575.1,286047002.4,N
1556519576.0,286047002.4,N
1556519595.8,286047002.7,N
1556519615.7,286047002.5,N
1556519635.5,286046999.7,N
1556519655.3,286047000.3,N
1556519675.2,286046998.8,N
1556519695.0,286046999.2,N
1556519695.9,286046999.2,N
1556519715.8,286046998.4,N
1556519735.6,286047000.4,N
1556519755.4,286047001.0,N
1556519775.3,286046998.1,N
1556519795.1,286047001.0,N
1556519815.9,286046998.5,N
1556519835.7,286046998.7,N
1556519855.5,286047000.3,N
1556519875.4,286047000.4,N
1556519895.2,286047001.2,N
1556519915.0,286046999.0,N
1556519915.9,286046999.0,N
1556519935.8,286046997.1,N
1556519955.6,286046995.1,Y
1556519975.5,286046997.7,P
1556519995.3,286046993.3,P
1556520015.1,286046997.9,N
1556520035.9,286046997.0,N
1556520055.7,286046999.3,N
1556520075.5,286046997.0,N
1556520095.4,286046997.0,N
1556520115.2,286046997.0,N
1556520135.1,286046999.1,N
1556520136.0,286046999.1,N
1556520155.8,286046996.5,N
1556520175.6,286046999.3,N
1556520195.5,286046998.4,N
1556520215.3,286047000.7,N
1556520235.1,286046998.1,N
1556520255.9,286047000.5,N
1556520275.7,286046999.7,N
1556520295.6,286046999.9,N
1556520315.4,286047000.8,N
1556520335.2,286047000.3,N
1556520355.1,286046998.1,N
1556520356.0,286046998.1,N
1556520375.8,286047000.8,N
1556520395.6,286046998.5,N
1556520415.5,286046996.6,N
1556520435.3,286046998.0,N
1556520455.2,286046997.2,N
1556520475.9,286046998.9,N
1556520495.7,286047001.1,N
1556520515.6,286046999.3,N
1556520535.4,286046999.2,N
1556520555.2,286046996.7,N
1556520575.1,286046997.1,N
1556520576.0,286046997.1,N
1556520595.8,286046996.8,N
1556520615.7,286046996.6,N
1556520635.5,286046999.1,N
1556520655.3,286047000.8,N
1556520675.2,286046998.2,N
1556520695.0,286047000.0,N
1556520695.9,286047000.0,N
1556520715.7,286047000.6,N
1556520735.6,286047001.1,N
1556520755.4,286046996.5,N
1556520775.3,286046997.6,N
1556520795.1,286046997.6,N
1556520796.0,286046997.6,N
1556520815.8,286046997.8,N
1556520835.7,286046996.9,N
1556520855.5,286046998.4,N
1556520875.3,286047000.8,N
1556520925.2,286046998.1,E
1556520935.1,286046998.5,N
1556520955.9,286047000.2,P
1556520975.7,286047000.5,N
1556520995.5,286047002.1,N
1556521015.4,286047000.2,N
1556521035.2,286047001.3,N
1556521055.1,286047000.6,N
1556521075.7,286047000.8,N
1556521095.6,286047001.1,N
1556521115.4,286047001.1,N
1556521135.3,286047000.8,N
1556521155.1,286046999.0,N
1556521156.0,286046999.0,N
1556521175.8,286046999.6,N
1556521195.7,286046999.4,N
